Stations météo

réclame
Mon MeteoGroup
Saint-Quentin, France (7061): Température de l'air & dewpoint: 15.07.2019 17:00:00 - 21.07.2019 17:00:00 (CEST)Saint-Quentin, France (7061): Température de l'air 5cm: 15.07.2019 17:00:00 - 21.07.2019 17:00:00 (CEST)Saint-Quentin, France (7061): Température de l'air -20cm & Température de l'air -100cm: 15.07.2019 17:00:00 - 21.07.2019 17:00:00 (CEST)Saint-Quentin, France (7061): Vitesse du vent & gusts: 15.07.2019 17:00:00 - 21.07.2019 17:00:00 (CEST)Saint-Quentin, France (7061): Direction du vent: 15.07.2019 17:00:00 - 21.07.2019 17:00:00 (CEST)Saint-Quentin, France (7061): reduced air pressure: 15.07.2019 17:00:00 - 21.07.2019 17:00:00 (CEST)Saint-Quentin, France (7061): visibility: 15.07.2019 17:00:00 - 21.07.2019 17:00:00 (CEST)Saint-Quentin, France (7061): Ensoleillement: 15.07.2019 17:00:00 - 21.07.2019 17:00:00 (CEST)Saint-Quentin, France (7061): Quantités de précipitations: 15.07.2019 17:00:00 - 21.07.2019 17:00:00 (CEST)
Date & Time tt [°C] td [°C] tt 5cm [°C] tt -20cm [°C] tt -100cm [°C] ff [km/h] ff [knt] fx [km/h] fx [knt] dd ppp [hPa] vv [km] sd [min] rr [mm]
21.07.2019 17:00:00 26,0 11,0 30,5 18,7 16,7 11 6 34 19 WNW 1021,9 20 48 0,0
21.07.2019 16:00:00 25,4 10,8 32,9 18,6 16,8 8 4 28 15 WNW 1022,1 20 58 0,0
21.07.2019 15:00:00 24,6 10,8 32,7 18,4 16,7 15 8 29 16 W 1022,4 20 60 0,0
21.07.2019 14:00:00 23,5 11,2 32,6 18,3 16,7 9 5 24 13 W 1022,5 20 60 0,0
21.07.2019 13:00:00 22,7 11,4 27,3 18,2 16,7 10 5 25 13 W 1022,4 20 51 0,0
21.07.2019 12:00:00 21,5 11,8 25,9 18,2 16,7 14 7 27 15 WNW 1022,3 20 47 0,0
21.07.2019 11:00:00 20,7 12,4 23,0 18,2 16,7 11 6 23 13 W 1022,1 20 60 0,0
21.07.2019 10:00:00 18,6 13,2 19,3 18,3 16,7 14 8 22 12 WNW 1021,9 20 60 0,0
21.07.2019 09:00:00 16,5 13,2 15,8 18,4 16,7 13 7 19 10 W 1021,7 20 36 0,0
21.07.2019 08:00:00 14,9 12,8 13,5 18,6 16,7 11 6 17 9 WSW 1020,9 20 35 0,0
21.07.2019 07:00:00 14,0 12,4 9,5 18,6 16,7 10 6 20 11 SW 1020,2 20 30 0,0
21.07.2019 06:00:00 11,8 10,7 8,1 18,8 16,7 4 2 13 7 WSW 1020,0 19 0 0,0
21.07.2019 05:00:00 12,3 10,7 8,1 18,8 16,7 8 5 11 6 WSW 1019,3 20 0 0,0
21.07.2019 04:00:00 13,2 11,9 8,6 18,9 16,7 7 4 13 7 W 1019,0 20 0 0,0
21.07.2019 03:00:00 13,3 11,5 9,7 19,0 16,7 8 5 10 6 W 1018,7 19 0 0,0
21.07.2019 02:00:00 14,6 12,6 11,3 19,1 16,7 6 3 9 5 W 1018,0 20 0 0,0
21.07.2019 01:00:00 15,5 13,0 12,3 19,1 16,7 8 4 15 8 W 1017,6 20 0 0,0
21.07.2019 00:00:00 16,2 12,9 12,7 19,2 16,7 6 4 16 8 WNW 1017,0 20 0 0,0
20.07.2019 23:00:00 18,7 14,0 17,4 19,1 16,7 11 6 24 13 NW 1016,1 20 0 0,0
20.07.2019 22:00:00 20,6 14,5 19,0 19,1 16,7 12 7 22 12 NW 1015,2 20 12 0,0
20.07.2019 21:00:00 22,5 14,6 21,7 19,1 16,7 14 8 25 14 W 1014,1 20 29 0,0
20.07.2019 20:00:00 23,3 16,8 22,9 19,0 16,7 15 8 32 17 SW 1013,3 20 9 0,0
20.07.2019 19:00:00 24,6 14,7 25,5 18,9 16,7 19 10 42 23 W 1012,9 20 6 0,0
20.07.2019 18:00:00 25,0 14,5 26,6 18,8 16,7 25 13 43 23 WSW 1012,6 20 27 0,0
20.07.2019 17:00:00 25,3 15,0 26,9 18,8 16,7 27 14 51 27 W 1012,4 20 52 0,0
20.07.2019 16:00:00 23,7 14,1 22,0 18,6 16,7 39 21 61 33 W 1012,1 20 11 0,0
20.07.2019 15:00:00 24,9 15,0 26,4 18,5 16,7 36 19 65 35 W 1011,2 20 19 0,0
20.07.2019 14:00:00 26,9 15,0 26,6 18,4 16,7 31 17 47 25 SW 1010,5 20 17 0,0
20.07.2019 13:00:00 26,2 15,0 28,7 18,4 16,7 23 13 37 20 SSW 1010,4 20 21 0,0
20.07.2019 12:00:00 25,1 14,2 26,2 18,4 16,7 23 13 35 19 SW 1010,3 20 32 0,0
20.07.2019 11:00:00 24,0 14,7 25,5 18,4 16,7 15 8 26 14 SW 1010,1 20 28 0,0
20.07.2019 10:00:00 22,7 14,3 21,3 18,4 16,7 15 8 22 12 SW 1010,3 20 12 0,0
20.07.2019 09:00:00 19,7 13,4 19,2 18,5 16,7 7 4 18 10 S 1010,3 20 0 0,0
20.07.2019 08:00:00 18,6 13,2 17,6 18,5 16,7 11 6 16 9 SSE 1009,7 20 0 0,0
20.07.2019 07:00:00 17,6 13,5 14,7 18,6 16,6 10 5 17 9 SSE 1009,9 20 3 0,0
20.07.2019 06:00:00 15,2 13,0 10,9 18,7 16,6 5 3 11 6 SE 1010,3 20 0 0,0
20.07.2019 05:00:00 14,4 12,1 11,6 18,8 16,7 9 5 10 6 ESE 1010,6 20 0 0,0
20.07.2019 04:00:00 14,4 12,6 11,5 18,9 16,7 7 4 10 5 ESE 1010,9 20 0 0,0
20.07.2019 03:00:00 14,9 12,8 11,9 18,9 16,6 6 4 10 5 ESE 1011,2 20 0 0,0
20.07.2019 02:00:00 15,5 12,8 11,6 19,0 16,7 8 4 9 5 E 1011,3 20 0 0,0
20.07.2019 01:00:00 17,3 12,6 12,0 19,1 16,6 2 1 5 3 E 1011,7 20 0 0,0
20.07.2019 00:00:00 19,0 13,4 14,2 19,1 16,6 4 2 9 5 E 1012,1 20 0 0,0
19.07.2019 23:00:00 18,5 13,1 14,8 19,1 16,6 10 5 13 7 SSE 1012,4 20 0 0,0
19.07.2019 22:00:00 20,8 13,5 16,1 19,1 16,7 6 3 11 6 SE 1012,4 19 0 0,0
19.07.2019 21:00:00 23,2 13,9 22,1 19,0 16,6 9 5 14 7 S 1012,4 20 0 0,0
19.07.2019 20:00:00 24,6 14,4 24,9 18,9 16,6 10 5 18 10 S 1012,6 20 0 0,0
19.07.2019 19:00:00 25,0 13,5 26,1 18,8 16,6 16 8 24 13 S 1012,9 20 5 0,0
19.07.2019 18:00:00 25,3 13,5 27,4 18,7 16,7 17 9 32 17 S 1013,2 20 13 0,0
19.07.2019 17:00:00 25,8 13,3 28,3 18,6 16,6 14 8 29 15 SSW 1013,4 20 36 0,0
19.07.2019 16:00:00 24,5 12,1 28,4 18,5 16,7 14 8 32 17 S 1013,9 20 39 0,0
19.07.2019 15:00:00 24,9 12,5 27,6 18,4 16,6 22 12 34 19 SW 1014,2 20 20 0,0
19.07.2019 14:00:00 23,7 12,7 26,7 18,3 16,6 21 12 37 20 SW 1014,6 20 27 0,0
19.07.2019 13:00:00 22,1 12,1 25,2 18,3 16,6 14 8 28 15 WSW 1015,0 20 19 0,0
19.07.2019 12:00:00 21,0 12,4 24,6 18,3 16,6 13 7 27 15 SSW 1015,3 20 33 0,0
19.07.2019 11:00:00 20,4 11,6 21,0 18,3 16,6 14 8 29 16 W 1015,5 20 57 0,0
19.07.2019 10:00:00 18,6 11,7 19,5 18,3 16,6 15 8 21 11 SW 1015,9 20 12 0,0
19.07.2019 09:00:00 16,8 13,3 16,9 18,4 16,6 9 5 19 11 SW 1015,8 20 15 0,0
19.07.2019 08:00:00 15,6 13,8 11,0 18,5 16,7 10 5 16 9 SSW 1015,3 19 48 0,0
19.07.2019 07:00:00 12,4 11,1 10,4 18,6 16,6 6 3 10 5 SSW 1015,1 17 0 0,0
19.07.2019 06:00:00 13,7 11,9 12,3 18,6 16,6 6 4 13 7 SW 1015,0 20 0 0,0
19.07.2019 05:00:00 14,1 12,0 12,6 18,7 16,6 10 5 14 7 WSW 1014,9 20 0 0,0
19.07.2019 04:00:00 14,1 12,5 12,6 18,7 16,6 8 5 11 6 WNW 1015,1 20 0 0,0
19.07.2019 03:00:00 15,4 13,9 14,7 18,8 16,6 8 5 14 7 W 1014,8 20 0 0,0
19.07.2019 02:00:00 16,0 14,5 15,2 18,8 16,6 6 4 13 7 WNW 1014,7 20 0 0,0
19.07.2019 01:00:00 16,8 15,8 16,2 18,8 16,6 9 5 16 9 WSW 1014,3 20 0 0,0
19.07.2019 00:00:00 17,0 16,0 16,5 18,8 16,6 9 5 16 9 SW 1014,1 20 0 0,0
18.07.2019 23:00:00 17,5 16,4 16,9 18,8 16,7 10 5 14 7 SSW 1013,9 19 0 0,0
18.07.2019 22:00:00 18,2 16,0 17,1 18,8 16,6 9 5 17 9 W 1013,8 4,9 0 0,0
18.07.2019 21:00:00 18,7 15,9 18,0 18,8 16,6 8 4 19 11 W 1013,4 20 0 0,0
18.07.2019 20:00:00 18,8 16,4 18,2 18,7 16,6 9 5 16 9 W 1013,2 20 0 0,0
18.07.2019 19:00:00 18,3 16,3 17,8 18,7 16,6 10 6 41 22 W 1013,4 12 0 0,2
18.07.2019 18:00:00 21,2 14,1 22,1 18,6 16,6 23 12 35 19 NW 1012,9 20 0 0,0
18.07.2019 17:00:00 23,4 12,7 25,6 18,5 16,6 21 11 37 20 W 1012,5 20 0 0,0
18.07.2019 16:00:00 23,6 11,0 26,6 18,4 16,6 27 15 44 24 W 1012,4 20 9 0,0
18.07.2019 15:00:00 24,9 10,0 28,7 18,3 16,6 22 12 35 19 W 1012,2 20 34 0,0
18.07.2019 14:00:00 24,3 10,9 29,6 18,2 16,6 18 10 32 17 WSW 1012,4 20 55 0,0
18.07.2019 13:00:00 22,6 11,0 26,8 18,2 16,6 19 10 27 15 SW 1012,5 20 22 0,0
18.07.2019 12:00:00 21,0 10,5 24,9 18,2 16,6 15 8 29 15 W 1012,9 20 31 0,0
18.07.2019 11:00:00 20,1 11,8 22,0 18,2 16,6 13 7 21 12 WSW 1013,0 20 41 0,0
18.07.2019 10:00:00 17,8 12,7 18,5 18,3 16,6 10 5 16 9 W 1013,0 20 0 0,0
18.07.2019 09:00:00 15,8 12,5 16,7 18,3 16,6 8 5 13 7 W 1013,2 15 2 0,0
18.07.2019 08:00:00 14,1 11,3 13,5 18,5 16,6 4 2 7 4 SW 1013,3 15 9 0,0
18.07.2019 07:00:00 12,4 11,1 7,9 18,6 16,6 4 2 6 4 SSW 1013,1 12 34 0,0
18.07.2019 06:00:00 11,5 9,6 7,8 18,7 16,6 4 2 8 5 WSW 1013,2 14 0 0,0
18.07.2019 05:00:00 12,1 9,8 9,9 18,8 16,6 7 4 12 7 W 1013,0 20 0 0,0
18.07.2019 04:00:00 13,1 9,5 11,0 18,9 16,6 6 4 9 5 W 1013,0 20 0 0,0
18.07.2019 03:00:00 13,8 8,8 10,3 19,0 16,6 4 2 8 5 W 1013,3 20 0 0,0
18.07.2019 02:00:00 13,9 8,5 10,1 19,0 16,6 5 3 9 5 WNW 1013,3 20 0 0,0
18.07.2019 01:00:00 14,7 8,9 11,7 19,1 16,6 4 2 12 6 W 1013,3 20 0 0,0
18.07.2019 00:00:00 15,5 9,4 12,2 19,1 16,6 5 3 9 5 W 1013,2 20 0 0,0
17.07.2019 23:00:00 17,9 9,8 15,1 19,1 16,6 9 5 18 10 NW 1013,3 20 0 0,0
17.07.2019 22:00:00 19,7 10,9 18,7 19,0 16,6 16 8 39 21 NW 1013,2 20 6 0,0
17.07.2019 21:00:00 23,1 8,8 19,9 18,9 16,6 4 2 6 3 E 1012,2 20 6 0,0
17.07.2019 20:00:00 25,6 7,2 26,6 18,8 16,6 3 2 9 5 ENE 1012,2 20 29 0,0
17.07.2019 19:00:00 25,9 6,5 28,5 18,6 16,6 5 3 14 7 N 1012,5 20 26 0,0
17.07.2019 18:00:00 26,6 7,1 30,3 18,4 16,6 7 4 24 13 W 1012,8 20 51 0,0
17.07.2019 17:00:00 26,9 7,4 32,3 18,2 16,6 3 1 18 10 E 1013,4 20 60 0,0
17.07.2019 16:00:00 26,6 6,6 33,2 18,0 16,6 6 3 21 11 WNW 1013,8 20 60 0,0
17.07.2019 15:00:00 25,6 7,7 33,2 17,8 16,6 10 6 17 9 NE 1014,1 20 60 0,0
17.07.2019 14:00:00 24,9 8,8 32,7 17,7 16,6 9 5 17 9 N 1014,7 20 60 0,0
17.07.2019 13:00:00 24,0 8,8 29,6 17,6 16,6 5 3 13 7 E 1015,3 20 58 0,0
17.07.2019 12:00:00 22,9 9,3 29,1 17,6 16,6 4 2 18 10 NE 1015,8 20 60 0,0
17.07.2019 11:00:00 21,4 10,5 23,9 17,6 16,7 2 1 16 9 SW 1016,1 20 60 0,0
17.07.2019 10:00:00 19,7 11,2 19,6 17,7 16,6 3 2 9 5 WSW 1016,4 18 60 0,0
17.07.2019 09:00:00 17,5 11,3 16,8 17,8 16,6 2 1 5 3 SSW 1016,5 15 60 0,0
17.07.2019 08:00:00 14,7 11,5 9,4 17,9 16,6 0 0 4 2 N 1016,4 14 60 0,0
17.07.2019 07:00:00 10,1 9,0 4,8 18,0 16,6 2 1 5 3 NE 1016,7 12 35 0,0
17.07.2019 06:00:00 9,3 8,2 4,1 18,1 16,6 3 2 5 3 N 1016,9 10 0 0,0
17.07.2019 05:00:00 9,4 8,2 4,2 18,3 16,6 0 0 2 1 N 1017,0 16 0 0,0
17.07.2019 04:00:00 10,8 8,9 5,6 18,4 16,6 0 0 5 3 N 1016,9 20 0 0,0
17.07.2019 03:00:00 11,1 8,1 5,2 18,5 16,6 4 2 6 3 NNE 1017,4 20 0 0,0
17.07.2019 02:00:00 11,6 8,6 5,3 18,6 16,6 6 3 7 4 ENE 1017,5 20 0 0,0
17.07.2019 01:00:00 12,9 9,0 8,4 18,7 16,7 3 2 5 3 NE 1017,7 20 0 0,0
17.07.2019 00:00:00 13,7 8,9 8,5 18,7 16,7 4 2 9 5 ENE 1017,7 17 0 0,0
16.07.2019 23:00:00 17,4 9,3 15,1 18,7 16,7 7 4 11 6 NE 1017,7 20 0 0,0
16.07.2019 22:00:00 17,2 9,4 15,0 18,7 16,6 10 5 11 6 NNE 1017,7 20 18 0,0
16.07.2019 21:00:00 20,0 9,5 19,9 18,6 16,7 9 5 16 9 N 1017,5 20 57 0,0
16.07.2019 20:00:00 22,2 9,0 24,8 18,4 16,7 8 5 19 10 NNE 1017,3 20 60 0,0
16.07.2019 19:00:00 22,6 8,7 26,8 18,3 16,6 10 6 20 11 NNE 1017,4 20 60 0,0
16.07.2019 18:00:00 23,1 8,8 29,1 18,1 16,7 7 4 22 12 NNW 1017,6 20 60 0,0
16.07.2019 17:00:00 22,4 8,9 27,0 17,9 16,7 8 5 18 10 NNE 1018,1 19 55 0,0
16.07.2019 16:00:00 21,6 9,5 26,3 17,8 16,7 9 5 23 12 NNW 1018,5 20 48 0,0
16.07.2019 15:00:00 21,6 9,8 28,7 17,6 16,6 7 4 26 14 N 1018,7 20 60 0,0
16.07.2019 14:00:00 20,4 9,3 28,4 17,5 16,7 9 5 22 12 ENE 1019,1 20 60 0,0
16.07.2019 13:00:00 19,6 9,5 25,9 17,4 16,6 9 5 21 12 N 1019,4 20 60 0,0
16.07.2019 12:00:00 18,4 9,5 21,7 17,4 16,7 8 4 21 11 NNE 1019,9 18 51 0,0
16.07.2019 11:00:00 17,2 9,1 20,0 17,4 16,7 8 4 19 10 N 1020,1 18 29 0,0
16.07.2019 10:00:00 16,2 8,9 17,0 17,5 16,7 4 2 15 8 NE 1020,4 20 5 0,0
16.07.2019 09:00:00 14,8 11,0 14,0 17,5 16,7 8 4 15 8 NNE 1020,5 16 0 0,0
16.07.2019 08:00:00 12,7 10,6 10,5 17,7 16,7 9 5 17 9 NNE 1020,5 12 4 0,0
16.07.2019 07:00:00 10,2 9,1 6,6 17,8 16,7 11 6 14 7 NNE 1020,4 8 36 0,0
16.07.2019 06:00:00 8,7 7,8 3,9 17,9 16,7 6 4 10 5 NE 1020,2 9 0 0,0
16.07.2019 05:00:00 9,4 8,0 7,4 18,0 16,7 7 4 12 6 NNE 1020,1 10 0 0,0
16.07.2019 04:00:00 10,5 9,1 8,5 18,1 16,7 9 5 12 7 NE 1020,4 12 0 0,0
16.07.2019 03:00:00 10,7 9,3 9,5 18,2 16,7 9 5 17 9 N 1020,6 11 0 0,0
16.07.2019 02:00:00 11,0 9,4 9,7 18,2 16,7 10 5 16 9 N 1020,8 14 0 0,0
16.07.2019 01:00:00 10,9 8,8 10,0 18,3 16,7 10 6 16 8 N 1020,9 17 0 0,0
16.07.2019 00:00:00 11,8 8,8 10,1 18,4 16,8 11 6 14 7 N 1020,7 20 0 0,0
15.07.2019 23:00:00 12,8 8,9 10,4 18,4 16,7 9 5 13 7 NNE 1020,7 20 0 0,0
15.07.2019 22:00:00 15,4 9,5 12,6 18,4 16,7 8 4 16 9 NE 1020,2 20 22 0,0
15.07.2019 21:00:00 17,0 9,7 17,3 18,3 16,7 11 6 26 14 ENE 1020,0 20 53 0,0
15.07.2019 20:00:00 18,1 9,7 19,0 18,2 16,7 15 8 30 16 NE 1020,0 20 11 0,0
15.07.2019 19:00:00 18,8 9,8 19,8 18,1 16,7 16 8 33 18 N 1019,9 20 21 0,0
15.07.2019 18:00:00 19,0 10,3 21,1 18,0 16,7 18 10 35 19 NNE 1020,0 20 17 0,0
15.07.2019 17:00:00 20,4 10,2 22,2 17,9 16,8 18 10 36 19 NNE 1020,3 20 45 0,0

tt = Température de l'air
td = dewpoint
tt 5cm = Température de l'air 5cm
tt -20cm = Température de l'air -20cm
tt -100cm = Température de l'air -100cm
ff = Vitesse du vent
fx = gusts
dd = Direction du vent
ppp = reduced air pressure
vv = visibility
sd = Ensoleillement
rr = Quantités de précipitations

stations d'obs. à proximité